CONNECTA T3.1

导读 | 星芒AI

CONNECTA T3.1 是一颗由阿根廷国家航天委员会(CONAE)研发的地球观测卫星,主要用于农业监测和灾害管理。该卫星于2022年发射,搭载高分辨率多光谱成像仪,能够提供精确的土地利用和植被覆盖数据。作为阿根廷“连接计划”(CONNECTION)的一部分,T3.1 提升了国家在遥感和环境监测方面的能力,支持可持续发展和精准农业应用。

基本信息
目录编号:
58256
目录名称:
CONNECTA T3.1
国际标识:
2023-174A
轨道中心:
EARTH
卫星名称:
CONNECTA T3.1
卫星全名:
--
卫星状态:
已陨落 最后检测时间 2025-11-16
发射日期:
2023-11-11 UTC
国别 :
土耳其 (TR)
星等 :
--
轨道信息
数据来源 国际轨道数据
星历时间: 2025-11-16T14:58:36+0800
轨道信息已过期27天
半长轴: 6547.312km
偏心率: 0.0009475
轨道倾角: 97.361°
近地点辐角 269.070°
升交点赤经 50.049°
平近点角 90.951°
近地点: 162.973km
远地点: 175.381km
周期: 87.873分钟
每日圈数: 16.387334
详细信息
使用方式:
暂无